[[{"header":{"parameterUnit":"m.s-1","parameterCategory":1,"la1":30.2991,"la2":30.254,"lo1":-89.0895,"lo2":-89.0444,"dy":0.0017,"dx":0.0017,"nx":28,"ny":28,"refTime":"2025-01-28T03:00:00:Z","depth":0,"parameterNumber":2,"parameterNumberName":"U-component_of_WINDS"},"data":[0,0,0,0,0,0,0,0,0,0,0,0,0,0,0,0,0,0,0,0,0,0,0,0,0,0,0,0,0,0,0,0,0,0,0,0,0,0,0,0,0,0,0,0,0,0,0,0,0,0,0,0,0,0,0,0,0,0,-0.9076,-0.9076,0,-0.9061,-0.9061,-0.9061,-0.9035,-0.9035,-0.9034,-0.9034,-0.9017,-0.9017,-0.9017,0,0,0,0,0,0,0,0,0,0,0,0,0,-0.9082,-0.9082,-0.9076,-0.9076,-0.9076,-0.9061,-0.9061,-0.9061,-0.9035,-0.9035,-0.9034,-0.9034,-0.9017,-0.9017,-0.9017,0,0,0,0,0,0,0,0,0,0,0,0,0,-0.9075,-0.9082,-0.9076,-0.9061,-0.906,-0.9061,-0.9061,-0.9061,-0.9035,-0.9035,-0.9034,-0.9033,-0.9017,-0.9017,-0.9017,-0.9031,0,0,-0.9017,-0.9017,0,0,0,0,0,0,0,0,-0.9075,-0.9074,-0.9064,-0.9062,-0.9061,-0.9049,-0.9057,-0.9051,-0.9036,-0.9045,-0.9034,-0.9033,-0.9028,-0.9027,-0.9026,-0.9031,-0.903,-0.9017,-0.9017,-0.9017,-0.9017,0,0,0,0,0,0,0,-0.9076,-0.9075,-0.907,-0.9063,-0.9062,-0.9055,-0.9053,-0.9056,-0.9041,-0.9044,-0.9042,-0.9041,-0.9027,-0.9026,-0.9025,-0.903,-0.9017,-0.9017,-0.9017,-0.9017,-0.9047,-0.9048,0,0,0,0,0,0,-0.9078,-0.9075,-0.9071,-0.907,-0.9066,-0.9056,-0.9054,-0.9054,-0.904,-0.9038,-0.9041,-0.9039,-0.9026,-0.9025,-0.9025,-0.9042,-0.9017,-0.9017,-0.9017,-0.9047,-0.9047,-0.9048,0,0,0,0,0,0,-0.9079,-0.9078,-0.9071,-0.9072,-0.9071,-0.9056,-0.9057,-0.9054,-0.9053,-0.9039,-0.9036,-0.9043,-0.9026,-0.9025,-0.9031,-0.9041,-0.9017,-0.9017,-0.9046,-0.9047,-0.9048,-0.9076,0,0,0,0,0,0,-0.9079,-0.9078,-0.9084,-0.9072,-0.9071,-0.9077,-0.9057,-0.9054,-0.9053,-0.905,-0.9039,-0.9037,-0.9025,-0.9031,-0.9031,-0.904,-0.9017,-0.9045,-0.9046,-0.9048,-0.9074,-0.9078,-0.9081,0,0,0,0,0,-0.9079,-0.9091,-0.9084,-0.9084,-0.9077,-0.9078,-0.9077,-0.9064,-0.9054,-0.9059,-0.905,-0.9037,-0.904,-0.9031,-0.9031,-0.9041,-0.9044,-0.9046,-0.9047,-0.9072,-0.9077,-0.9081,0,0,0,0,0,0,-0.9103,-0.9089,-0.9081,-0.909,-0.9086,-0.9074,-0.908,-0.9069,-0.9067,-0.9064,-0.9048,-0.9046,-0.9054,-0.9048,-0.9039,-0.9055,-0.904,-0.9042,-0.9059,-0.9063,-0.9067,-0.9068,-0.9017,0,0,0,0,0,-0.9109,-0.9111,-0.9099,-0.9108,-0.9107,-0.9094,-0.9094,-0.9084,-0.9078,-0.9076,-0.9068,-0.9063,-0.9062,-0.9062,-0.9061,-0.9073,-0.9071,-0.908,-0.9084,-0.9087,-0.9088,-0.9096,-0.91,-0.9054,-0.9054,-0.9054,0,0,-0.9122,-0.9115,-0.9117,-0.9113,-0.9108,-0.9111,-0.9092,-0.9095,-0.9097,-0.9076,-0.9082,-0.9076,-0.9069,-0.9078,-0.9082,-0.9073,-0.9101,-0.9089,-0.9092,-0.9092,-0.9098,-0.9102,-0.9106,-0.9056,-0.9055,-0.9055,0,0,-0.9147,-0.9142,-0.9149,-0.9146,-0.9139,-0.9131,-0.9133,-0.9123,-0.9119,-0.9124,-0.9109,-0.9111,-0.9111,-0.9107,-0.9105,-0.9132,-0.912,-0.9132,-0.9151,-0.9158,-0.9162,-0.9165,-0.9175,-0.9179,-0.9134,-0.9134,-0.9134,0,-0.9164,-0.9167,-0.9154,-0.9159,-0.9158,-0.9141,-0.9149,-0.9146,-0.9139,-0.9139,-0.913,-0.9131,-0.9125,-0.9134,-0.9141,-0.9139,-0.9142,-0.9133,-0.9162,-0.9165,-0.9168,-0.9178,-0.9181,-0.9135,-0.9135,-0.9135,-0.9135,0,-0.9189,-0.9192,-0.9199,-0.9194,-0.9194,-0.92,-0.9189,-0.919,-0.9182,-0.9174,-0.9181,-0.9174,-0.9172,-0.9173,-0.9164,-0.9181,-0.9176,-0.9165,-0.9149,-0.9174,-0.9183,-0.9186,-0.9137,-0.9137,-0.9136,-0.9136,0,0,-0.9227,-0.9217,-0.9219,-0.9218,-0.9211,-0.9213,-0.9219,-0.9218,-0.922,-0.9217,-0.9222,-0.9223,-0.9214,-0.9212,-0.9202,-0.9208,-0.9231,-0.9196,-0.9196,-0.9204,-0.9251,-0.926,-0.9265,-0.9224,-0.9224,-0.9225,-0.9252,0,-0.925,-0.9261,-0.925,-0.9263,-0.9266,-0.9251,-0.9256,-0.9253,-0.9247,-0.9249,-0.9242,-0.9243,-0.923,-0.9229,-0.9235,-0.9227,-0.9241,-0.9225,-0.9229,-0.9229,-0.9231,-0.9269,-0.9278,-0.9304,-0.9256,-0.9256,-0.9256,0,-0.9279,-0.9278,-0.9292,-0.9286,-0.9286,-0.9292,-0.9291,-0.9293,-0.9289,-0.9284,-0.9284,-0.9273,-0.9279,-0.9264,-0.9273,-0.9262,-0.9263,-0.926,-0.9261,-0.9261,-0.9244,-0.927,-0.9312,-0.9316,-0.9262,-0.9261,-0.9261,0,-0.9306,-0.9309,-0.9318,-0.9317,-0.9309,-0.9314,-0.9311,-0.9307,-0.9307,-0.9307,-0.9307,-0.9307,-0.9307,-0.9307,-0.9297,-0.9287,-0.9308,-0.9291,-0.9304,-0.9305,-0.9309,-0.9309,-0.9352,-0.9309,-0.9309,-0.9309,-0.9309,0,-0.9334,-0.9343,-0.933,-0.9335,-0.9345,-0.9334,-0.9344,-0.9339,-0.9336,-0.934,-0.9327,-0.9332,-0.9318,-0.9321,-0.9313,-0.9322,-0.9322,-0.9319,-0.9317,-0.932,-0.9321,-0.932,-0.9319,-0.931,-0.931,-0.931,-0.931,0,-0.9366,-0.9358,-0.9366,-0.936,-0.9358,-0.9366,-0.936,-0.9365,-0.9359,-0.9365,-0.9366,-0.9356,-0.936,-0.935,-0.9351,-0.9346,-0.936,-0.9354,-0.9361,-0.936,-0.9374,-0.9373,-0.9418,-0.9424,-0.9377,-0.9378,-0.9378,0,-0.9384,-0.9391,-0.9385,-0.9388,-0.9386,-0.939,-0.9392,-0.9381,-0.9383,-0.938,-0.9386,-0.9388,-0.939,-0.9396,-0.9389,-0.9391,-0.9385,-0.9401,-0.9385,-0.939,-0.9387,-0.9387,-0.9388,-0.9405,-0.9405,-0.9406,-0.9406,0,-0.9417,-0.9414,-0.9416,-0.9418,-0.942,-0.9421,-0.9421,-0.9423,-0.9412,-0.9415,-0.9419,-0.942,-0.9423,-0.9426,-0.9427,-0.9424,-0.9413,-0.9411,-0.9414,-0.9418,-0.9422,-0.9421,-0.9371,-0.941,-0.941,-0.9409,-0.9409,-0.9409,-0.9443,-0.9449,-0.9447,-0.9451,-0.945,-0.9451,-0.9456,-0.9451,-0.9454,-0.9456,-0.945,-0.9456,-0.9453,-0.9453,-0.9452,-0.9456,-0.9449,-0.9453,-0.9454,-0.9456,-0.9459,-0.9422,-0.9456,-0.9456,-0.9456,-0.9456,-0.9456,0,-0.9477,-0.9475,-0.9479,-0.948,-0.9483,-0.9475,-0.9474,-0.9478,-0.9483,-0.9482,-0.9485,-0.949,-0.9494,-0.9488,-0.949,-0.9495,-0.9491,-0.9496,-0.9496,-0.9496,-0.9464,-0.9462,-0.95,-0.95,-0.95,-0.95,-0.95,-0.95,-0.9495,-0.9505,-0.9501,-0.9511,-0.9509,-0.9516,-0.9517,-0.9517,-0.9517,-0.9524,-0.9527,-0.9524,-0.9521,-0.9524,-0.9527,-0.9526,-0.9527,-0.9535,-0.9532,-0.9502,-0.9498,-0.9494,-0.9491,-0.9535,-0.9535,-0.9563,-0.9563,-0.9563]},{"header":{"parameterUnit":"m.s-1","parameterCategory":1,"la1":30.2991,"la2":30.254,"lo1":-89.0895,"lo2":-89.0444,"dy":0.0017,"dx":0.0017,"nx":28,"ny":28,"refTime":"2025-01-28T03:00:00:Z","depth":0,"parameterNumber":3,"parameterNumberName":"V-component_of_WINDS"},"data":[0,0,0,0,0,0,0,0,0,0,0,0,0,0,0,0,0,0,0,0,0,0,0,0,0,0,0,0,0,0,0,0,0,0,0,0,0,0,0,0,0,0,0,0,0,0,0,0,0,0,0,0,0,0,0,0,0,0,1.0422,1.0422,0,1.0407,1.0407,1.0406,1.039,1.039,1.039,1.039,1.0373,1.0372,1.0372,0,0,0,0,0,0,0,0,0,0,0,0,0,1.0437,1.0437,1.0422,1.0422,1.0422,1.0407,1.0407,1.0406,1.039,1.039,1.039,1.039,1.0373,1.0373,1.0372,0,0,0,0,0,0,0,0,0,0,0,0,0,1.0427,1.0437,1.0422,1.0412,1.0411,1.0407,1.0407,1.0406,1.0391,1.039,1.039,1.039,1.0373,1.0373,1.0372,1.0376,0,0,1.0371,1.0371,0,0,0,0,0,0,0,0,1.0428,1.0426,1.0414,1.0413,1.0412,1.04,1.0406,1.0396,1.0391,1.0398,1.039,1.0389,1.0382,1.0381,1.0379,1.0375,1.0375,1.0371,1.0371,1.0371,1.037,0,0,0,0,0,0,0,1.0428,1.0427,1.0416,1.0414,1.0412,1.0408,1.0406,1.0404,1.0392,1.0398,1.0396,1.0395,1.0381,1.0379,1.0378,1.0375,1.0371,1.0371,1.037,1.037,1.0374,1.0374,0,0,0,0,0,0,1.0431,1.0428,1.0416,1.0416,1.0419,1.0408,1.0406,1.0404,1.0392,1.039,1.0395,1.0394,1.038,1.0379,1.0377,1.0381,1.0371,1.037,1.037,1.0373,1.0374,1.0374,0,0,0,0,0,0,1.0431,1.043,1.0417,1.0421,1.0419,1.0408,1.0406,1.0404,1.0402,1.039,1.0388,1.0395,1.038,1.0378,1.0377,1.038,1.037,1.037,1.0373,1.0374,1.0374,1.0389,0,0,0,0,0,0,1.0432,1.043,1.0432,1.0421,1.0419,1.0417,1.0406,1.0404,1.0401,1.04,1.0389,1.0387,1.0379,1.0377,1.0376,1.038,1.0369,1.0373,1.0373,1.0374,1.0388,1.039,1.0391,0,0,0,0,0,1.0432,1.0436,1.0432,1.043,1.0421,1.0417,1.0416,1.0407,1.0402,1.0403,1.0396,1.0388,1.038,1.0377,1.0376,1.0379,1.0372,1.0373,1.0374,1.0387,1.0389,1.0391,0,0,0,0,0,0,1.0446,1.0435,1.043,1.0431,1.0425,1.0414,1.0416,1.0409,1.0405,1.0403,1.0392,1.039,1.039,1.0384,1.0381,1.0383,1.0375,1.0376,1.0386,1.0388,1.0389,1.039,1.0369,0,0,0,0,0,1.045,1.0448,1.0438,1.0439,1.0437,1.0427,1.0425,1.0418,1.0412,1.041,1.0402,1.0396,1.0392,1.039,1.0386,1.0387,1.0385,1.0389,1.0391,1.0392,1.0392,1.0392,1.0394,1.0376,1.0376,1.0376,0,0,1.0457,1.045,1.0449,1.0442,1.0437,1.0435,1.0425,1.0423,1.0422,1.0409,1.0407,1.0402,1.0394,1.0394,1.0394,1.039,1.0397,1.0393,1.0394,1.0394,1.0393,1.0395,1.0396,1.0377,1.0377,1.0377,0,0,1.0468,1.0463,1.0463,1.0459,1.0451,1.0445,1.0445,1.0436,1.0432,1.043,1.0421,1.0418,1.0412,1.0407,1.0404,1.0414,1.0406,1.0413,1.0421,1.0421,1.0422,1.0424,1.0426,1.0428,1.0413,1.0413,1.0413,0,1.0477,1.0473,1.0465,1.0463,1.046,1.045,1.045,1.0446,1.0438,1.0436,1.0432,1.0424,1.0418,1.0417,1.0419,1.0417,1.0416,1.0413,1.0423,1.0424,1.0425,1.0428,1.0429,1.0414,1.0414,1.0414,1.0414,0,1.0485,1.0483,1.0484,1.0477,1.0474,1.0474,1.0465,1.0463,1.0457,1.0451,1.0449,1.0442,1.0436,1.0436,1.043,1.0433,1.0431,1.0425,1.0417,1.0428,1.043,1.0431,1.0415,1.0415,1.0414,1.0414,0,0,1.0503,1.0491,1.0492,1.0488,1.048,1.0478,1.0478,1.0472,1.0471,1.0466,1.0464,1.046,1.0455,1.0451,1.0444,1.0445,1.0452,1.0439,1.0438,1.0441,1.0455,1.0459,1.046,1.0448,1.0448,1.0448,1.0456,0,1.0512,1.051,1.0502,1.0503,1.0501,1.0491,1.049,1.0485,1.0479,1.0477,1.047,1.0467,1.0461,1.0458,1.0458,1.0451,1.0455,1.0451,1.0446,1.0445,1.0447,1.0462,1.0465,1.0473,1.0457,1.0457,1.0457,0,1.0522,1.0518,1.0518,1.051,1.0508,1.0508,1.0503,1.05,1.0494,1.049,1.0486,1.0479,1.0477,1.0471,1.0468,1.0466,1.0463,1.046,1.046,1.0458,1.0451,1.0459,1.0475,1.0476,1.0458,1.0458,1.0458,0,1.0534,1.0529,1.0528,1.0526,1.0516,1.0516,1.0512,1.0506,1.0503,1.0498,1.0496,1.0492,1.0489,1.0485,1.0477,1.0473,1.0475,1.0468,1.0471,1.0471,1.0471,1.0471,1.0486,1.0471,1.0471,1.0471,1.0471,0,1.0544,1.0545,1.0534,1.0533,1.0533,1.0525,1.0525,1.052,1.0514,1.0513,1.0504,1.0503,1.0492,1.0489,1.0483,1.0481,1.048,1.0476,1.0475,1.0477,1.0477,1.0474,1.0473,1.0471,1.0471,1.0471,1.0471,0,1.0558,1.0551,1.0549,1.0541,1.0538,1.0539,1.0531,1.053,1.0525,1.0523,1.0522,1.0512,1.0509,1.05,1.0494,1.049,1.049,1.0487,1.0492,1.0491,1.0494,1.0493,1.0506,1.0507,1.0493,1.0493,1.0493,0,1.0564,1.0564,1.0556,1.0554,1.0551,1.0548,1.0546,1.0537,1.0535,1.0528,1.0528,1.0524,1.052,1.0514,1.0507,1.0502,1.0498,1.0503,1.0498,1.05,1.0497,1.0497,1.0497,1.0504,1.0505,1.0505,1.0505,0,1.0576,1.0572,1.0569,1.0565,1.0562,1.0559,1.0554,1.0553,1.0544,1.0542,1.0538,1.0535,1.0529,1.0525,1.0519,1.0515,1.0508,1.0507,1.0507,1.0509,1.0511,1.0509,1.0494,1.0506,1.0506,1.0506,1.0506,1.0506,1.0585,1.0585,1.0579,1.0576,1.0572,1.0568,1.0567,1.0561,1.0558,1.0553,1.0548,1.0545,1.0539,1.0531,1.0527,1.0524,1.052,1.0521,1.0521,1.0521,1.0522,1.0513,1.0523,1.0523,1.0523,1.0523,1.0523,0,1.0596,1.0592,1.0589,1.0584,1.0581,1.0576,1.0571,1.0569,1.0567,1.0562,1.0558,1.0554,1.055,1.0543,1.0538,1.0537,1.0534,1.0536,1.0535,1.0534,1.0525,1.0525,1.0538,1.0538,1.0538,1.0538,1.0538,1.0538,1.0601,1.06,1.0596,1.0593,1.0589,1.0586,1.0584,1.058,1.0576,1.0572,1.0569,1.0564,1.0558,1.0553,1.0549,1.0547,1.0545,1.0548,1.0545,1.0536,1.0535,1.0533,1.0533,1.0548,1.0548,1.0554,1.0554,1.0554]}]]